• In Hungary
  • List of Countries
  • For 7 days
  • Water Temperature
  • Satellite Maps
  • Weather Map
  • News
  • Weather Widgets
  • user-avatar
    Login

    Hourly Weather Rakowo

    Today, 11 December, Monday

    Time Temperature Precipitation Wind Pressure Humidity
    00:00 -4°C° 0 mm 6 mps 734 mmHg 68%
    01:00 -3°C° 0 mm 6 mps 733 mmHg 60%
    02:00 -3°C° 0.3 mm 6 mps 733 mmHg 68%
    03:00 -3°C° 0.3 mm 6 mps 733 mmHg 75%
    04:00 -3°C° 0.3 mm 6 mps 732 mmHg 82%
    05:00 -3°C° 0.2 mm 6 mps 732 mmHg 81%
    06:00 -2°C° 0.2 mm 6 mps 732 mmHg 80%
    07:00 -1°C° 0 mm 5 mps 732 mmHg 82%
    08:00 -1°C° 0.4 mm 5 mps 732 mmHg 83%
    09:00 0°C° 0.4 mm 5 mps 733 mmHg 83%
    10:00 -1°C° 0.4 mm 6 mps 733 mmHg 83%
    11:00 0°C° 0.1 mm 5 mps 733 mmHg 84%
    12:00 +1°C° 0.1 mm 5 mps 734 mmHg 85%
    13:00 +1°C° 0 mm 4 mps 733 mmHg 87%
    14:00 +1°C° 0 mm 4 mps 734 mmHg 88%
    15:00 0°C° 0 mm 4 mps 734 mmHg 89%
    16:00 0°C° 0 mm 4 mps 735 mmHg 90%
    17:00 0°C° 0 mm 4 mps 735 mmHg 90%
    18:00 0°C° 0 mm 4 mps 735 mmHg 89%
    19:00 0°C° 0 mm 4 mps 735 mmHg 89%
    20:00 0°C° 0 mm 5 mps 735 mmHg 89%
    21:00 0°C° 0 mm 5 mps 734 mmHg 89%
    22:00 +1°C° 0 mm 6 mps 734 mmHg 89%
    23:00 +1°C° 0 mm 6 mps 734 mmHg 88%

    Tomorrow, 12 December, Tuesday

    Time Temperature Precipitation Wind Pressure Humidity
    00:00 +2°C° 0 mm 6 mps 733 mmHg 88%
    01:00 +2°C° 0 mm 7 mps 733 mmHg 87%
    02:00 +3°C° 0 mm 7 mps 733 mmHg 87%
    03:00 +3°C° 0 mm 7 mps 732 mmHg 86%
    04:00 +4°C° 0 mm 7 mps 732 mmHg 86%
    05:00 +4°C° 0 mm 7 mps 732 mmHg 86%
    06:00 +4°C° 0 mm 7 mps 732 mmHg 86%
    07:00 +4°C° 0 mm 7 mps 732 mmHg 86%
    08:00 +5°C° 0 mm 7 mps 732 mmHg 86%
    09:00 +5°C° 0 mm 7 mps 733 mmHg 86%
    10:00 +6°C° 0 mm 7 mps 733 mmHg 86%
    11:00 +6°C° 0 mm 7 mps 734 mmHg 84%
    12:00 +6°C° 0 mm 7 mps 735 mmHg 81%
    13:00 +7°C° 0 mm 6 mps 735 mmHg 79%
    14:00 +5°C° 0 mm 7 mps 736 mmHg 76%
    15:00 +4°C° 0 mm 7 mps 737 mmHg 73%
    16:00 +4°C° 0 mm 7 mps 738 mmHg 71%
    17:00 +3°C° 0 mm 7 mps 739 mmHg 71%
    18:00 +3°C° 0 mm 7 mps 739 mmHg 71%
    19:00 +2°C° 0 mm 7 mps 740 mmHg 72%
    20:00 0°C° 0 mm 8 mps 740 mmHg 70%
    21:00 0°C° 0 mm 8 mps 741 mmHg 69%
    22:00 0°C° 0 mm 8 mps 741 mmHg 68%
    23:00 0°C° 0 mm 8 mps 742 mmHg 69%

    Day after tomorrow, 13 December, Wednesday

    Time Temperature Precipitation Wind Pressure Humidity
    00:00 0°C° 0 mm 8 mps 743 mmHg 71%
    01:00 0°C° 0 mm 8 mps 743 mmHg 72%
    02:00 -1°C° 0 mm 7 mps 744 mmHg 73%
    03:00 -1°C° 0 mm 6 mps 745 mmHg 75%
    04:00 -1°C° 0 mm 6 mps 745 mmHg 76%
    05:00 -1°C° 0 mm 5 mps 746 mmHg 78%
    06:00 -1°C° 0 mm 5 mps 747 mmHg 81%
    07:00 -2°C° 0 mm 5 mps 747 mmHg 83%
    08:00 -2°C° 0 mm 5 mps 748 mmHg 82%
    09:00 -2°C° 0 mm 5 mps 748 mmHg 82%
    10:00 -1°C° 0 mm 5 mps 749 mmHg 82%
    11:00 -1°C° 0 mm 5 mps 748 mmHg 81%
    12:00 -1°C° 0 mm 5 mps 748 mmHg 80%
    13:00 -1°C° 0 mm 5 mps 748 mmHg 79%
    14:00 -1°C° 0 mm 4 mps 748 mmHg 82%
    15:00 -2°C° 0 mm 4 mps 748 mmHg 85%
    16:00 -2°C° 0 mm 4 mps 748 mmHg 88%
    17:00 -2°C° 0 mm 4 mps 747 mmHg 87%
    18:00 -2°C° 0 mm 4 mps 747 mmHg 87%
    19:00 -2°C° 0 mm 4 mps 746 mmHg 87%
    20:00 -2°C° 0 mm 5 mps 746 mmHg 85%
    21:00 -2°C° 0 mm 5 mps 745 mmHg 83%
    22:00 -3°C° 0 mm 6 mps 745 mmHg 81%
    23:00 -3°C° 0 mm 6 mps 744 mmHg 80%

    14 December, Thursday

    Time Temperature Precipitation Wind Pressure Humidity
    00:00 -3°C° 0 mm 6 mps 743 mmHg 78%
    01:00 -3°C° 0 mm 7 mps 742 mmHg 76%
    02:00 -3°C° 0 mm 7 mps 741 mmHg 74%
    03:00 -3°C° 0 mm 7 mps 741 mmHg 72%
    04:00 -3°C° 0 mm 7 mps 740 mmHg 70%
    05:00 -2°C° 0 mm 7 mps 739 mmHg 69%
    06:00 -2°C° 0 mm 8 mps 738 mmHg 68%
    07:00 -2°C° 0 mm 8 mps 738 mmHg 67%
    08:00 -2°C° 0.1 mm 8 mps 737 mmHg 67%
    09:00 -1°C° 0.1 mm 8 mps 737 mmHg 66%
    10:00 -1°C° 0.1 mm 8 mps 736 mmHg 66%
    11:00 -1°C° 0.2 mm 8 mps 736 mmHg 70%
    12:00 0°C° 0.2 mm 8 mps 736 mmHg 73%
    13:00 0°C° 0.2 mm 7 mps 736 mmHg 77%
    14:00 0°C° 0.1 mm 7 mps 736 mmHg 78%
    15:00 0°C° 0.1 mm 7 mps 736 mmHg 79%
    16:00 +1°C° 0.1 mm 6 mps 736 mmHg 80%
    17:00 -1°C° 0 mm 6 mps 736 mmHg 79%
    18:00 -1°C° 0 mm 5 mps 736 mmHg 78%
    19:00 -1°C° 0 mm 5 mps 737 mmHg 78%
    20:00 -2°C° 0 mm 5 mps 737 mmHg 77%
    21:00 -2°C° 0 mm 5 mps 738 mmHg 77%
    22:00 -2°C° 0 mm 5 mps 738 mmHg 77%
    23:00 -2°C° 0 mm 4 mps 738 mmHg 78%

    15 December, Friday

    Time Temperature Precipitation Wind Pressure Humidity
    00:00 -2°C° 0 mm 4 mps 737 mmHg 79%
    01:00 -2°C° 0 mm 3 mps 737 mmHg 80%
    02:00 -2°C° 0 mm 4 mps 736 mmHg 82%
    03:00 -2°C° 0 mm 5 mps 736 mmHg 84%
    04:00 -2°C° 0 mm 5 mps 735 mmHg 86%
    05:00 -2°C° 0.3 mm 6 mps 735 mmHg 85%
    06:00 -2°C° 0.3 mm 7 mps 734 mmHg 85%
    07:00 -1°C° 0.3 mm 7 mps 734 mmHg 84%
    08:00 -1°C° 1.1 mm 7 mps 733 mmHg 85%
    09:00 -1°C° 1.1 mm 7 mps 732 mmHg 87%
    10:00 -1°C° 1.1 mm 7 mps 732 mmHg 89%
    11:00 -1°C° 0.8 mm 6 mps 732 mmHg 89%
    12:00 -1°C° 0.8 mm 6 mps 731 mmHg 89%
    13:00 -1°C° 0.8 mm 6 mps 731 mmHg 90%
    14:00 -1°C° 0.4 mm 6 mps 732 mmHg 90%
    15:00 -1°C° 0.4 mm 6 mps 732 mmHg 89%
    16:00 -2°C° 0.4 mm 7 mps 733 mmHg 89%
    17:00 -2°C° 0.2 mm 7 mps 734 mmHg 88%
    18:00 -2°C° 0.2 mm 7 mps 735 mmHg 87%
    19:00 -2°C° 0.2 mm 7 mps 736 mmHg 86%
    20:00 -2°C° 0 mm 6 mps 736 mmHg 86%
    21:00 -2°C° 0 mm 5 mps 737 mmHg 86%
    22:00 -2°C° 0 mm 5 mps 738 mmHg 86%
    23:00 -2°C° 0 mm 4 mps 738 mmHg 88%

    16 December, Saturday

    Time Temperature Precipitation Wind Pressure Humidity
    00:00 -2°C° 0 mm 3 mps 738 mmHg 90%
    01:00 -4°C° 0 mm 3 mps 739 mmHg 91%
    02:00 -4°C° 0 mm 3 mps 739 mmHg 92%
    03:00 -3°C° 0 mm 2 mps 739 mmHg 93%
    04:00 -4°C° 0 mm 2 mps 738 mmHg 93%
    05:00 -4°C° 0 mm 2 mps 739 mmHg 93%
    06:00 -4°C° 0 mm 2 mps 739 mmHg 92%
    07:00 -3°C° 0 mm 2 mps 739 mmHg 91%
    08:00 -3°C° 0 mm 2 mps 739 mmHg 90%
    09:00 -2°C° 0 mm 2 mps 740 mmHg 89%
    10:00 -2°C° 0 mm 3 mps 740 mmHg 88%
    11:00 -2°C° 0 mm 2 mps 740 mmHg 87%
    12:00 -1°C° 0 mm 2 mps 740 mmHg 87%
    13:00 -1°C° 0 mm 2 mps 740 mmHg 86%
    14:00 -1°C° 0 mm 2 mps 740 mmHg 87%
    15:00 -2°C° 0 mm 2 mps 740 mmHg 88%
    16:00 -2°C° 0 mm 2 mps 741 mmHg 89%
    17:00 -2°C° 0 mm 2 mps 741 mmHg 89%
    18:00 -2°C° 0 mm 2 mps 741 mmHg 89%
    19:00 -2°C° 0 mm 2 mps 741 mmHg 89%
    20:00 -2°C° 0 mm 2 mps 742 mmHg 90%
    21:00 -2°C° 0 mm 2 mps 742 mmHg 90%
    22:00 -2°C° 0 mm 2 mps 742 mmHg 90%
    23:00 -2°C° 0 mm 2 mps 742 mmHg 91%
    Show more